Time,TemperatureF,DewpointF,PressureIn,WindDirection,WindDirectionDegrees,WindSpeedMPH,WindSpeedGustMPH,Humidity,HourlyPrecipIn,Conditions,Clouds,dailyrainin,SolarRadiationWatts/m^2,SoftwareType,DateUTC
2013-03-13 00:00:00,31.0,23.0,30.37,NNW,339,3.0,8.0,72,0.00,,,0.00,0,weatherlink.com 1.10,2013-03-13 05:00:00,
2013-03-13 00:15:00,30.6,23.0,30.38,NW,319,1.0,5.0,72,0.00,,,0.00,0,weatherlink.com 1.10,2013-03-13 05:15:00,
2013-03-13 00:30:00,30.2,23.0,30.38,North,355,1.0,5.0,73,0.00,,,0.00,0,weatherlink.com 1.10,2013-03-13 05:30:00,
2013-03-13 00:45:00,29.8,22.0,30.38,NW,323,2.0,4.0,74,0.00,,,0.00,0,weatherlink.com 1.10,2013-03-13 05:45:00,
2013-03-13 01:00:00,29.5,22.0,30.38,NW,323,0.0,3.0,74,0.00,,,0.00,0,weatherlink.com 1.10,2013-03-13 06:00:00,
2013-03-13 01:15:00,29.2,22.0,30.39,NW,322,1.0,4.0,74,0.00,,,0.00,0,weatherlink.com 1.10,2013-03-13 06:15:00,
2013-03-13 01:30:00,29.0,22.0,30.38,NW,322,0.0,3.0,74,0.00,,,0.00,0,weatherlink.com 1.10,2013-03-13 06:30:00,
2013-03-13 01:45:00,28.7,21.0,30.39,NW,320,0.0,4.0,74,0.00,,,0.00,0,weatherlink.com 1.10,2013-03-13 06:45:00,
2013-03-13 02:00:00,28.4,21.0,30.38,NW,320,0.0,3.0,73,0.00,,,0.00,0,weatherlink.com 1.10,2013-03-13 07:00:00,
2013-03-13 02:15:00,28.3,21.0,30.39,NW,320,0.0,3.0,74,0.00,,,0.00,0,weatherlink.com 1.10,2013-03-13 07:15:00,
2013-03-13 02:30:00,28.1,21.0,30.39,NW,320,1.0,3.0,74,0.00,,,0.00,0,weatherlink.com 1.10,2013-03-13 07:30:00,
2013-03-13 02:45:00,27.9,21.0,30.39,NW,319,3.0,4.0,75,0.00,,,0.00,0,weatherlink.com 1.10,2013-03-13 07:45:00,
2013-03-13 03:00:00,27.8,21.0,30.39,WNW,285,0.0,4.0,76,0.00,,,0.00,0,weatherlink.com 1.10,2013-03-13 08:00:00,
2013-03-13 03:15:00,27.8,21.0,30.40,WNW,292,2.0,5.0,76,0.00,,,0.00,0,weatherlink.com 1.10,2013-03-13 08:15:00,
2013-03-13 03:30:00,27.8,21.0,30.39,WNW,284,1.0,6.0,76,0.00,,,0.00,0,weatherlink.com 1.10,2013-03-13 08:30:00,
2013-03-13 03:45:00,27.6,21.0,30.39,NW,314,0.0,3.0,76,0.00,,,0.00,0,weatherlink.com 1.10,2013-03-13 08:45:00,
2013-03-13 04:01:00,27.3,21.0,30.40,NW,313,0.0,3.0,76,0.00,,,0.00,0,weatherlink.com 1.10,2013-03-13 09:01:00,
2013-03-13 04:16:00,27.0,21.0,30.40,NW,313,1.0,4.0,77,0.00,,,0.00,0,weatherlink.com 1.10,2013-03-13 09:16:00,
2013-03-13 04:31:00,27.0,21.0,30.40,NW,311,1.0,4.0,78,0.00,,,0.00,0,weatherlink.com 1.10,2013-03-13 09:31:00,
2013-03-13 04:46:00,26.7,21.0,30.41,NW,311,1.0,2.0,78,0.00,,,0.00,0,weatherlink.com 1.10,2013-03-13 09:46:00,
2013-03-13 05:01:00,26.4,20.0,30.41,NW,311,0.0,1.0,78,0.00,,,0.00,0,weatherlink.com 1.10,2013-03-13 10:01:00,
2013-03-13 06:01:00,25.0,20.0,30.42,NW,311,0.0,3.0,81,0.00,,,0.00,0,weatherlink.com 1.10,2013-03-13 11:01:00,
2013-03-13 06:31:00,24.8,20.0,30.43,NW,311,0.0,2.0,81,0.00,,,0.00,0,weatherlink.com 1.10,2013-03-13 11:31:00,
2013-03-13 06:46:00,24.7,20.0,30.43,NW,311,0.0,1.0,81,0.00,,,0.00,0,weatherlink.com 1.10,2013-03-13 11:46:00,
2013-03-13 07:01:00,24.4,20.0,30.43,NW,311,1.0,2.0,82,0.00,,,0.00,0,weatherlink.com 1.10,2013-03-13 12:01:00,
2013-03-13 07:16:00,24.4,20.0,30.44,NW,311,1.0,3.0,82,0.00,,,0.00,0,weatherlink.com 1.10,2013-03-13 12:16:00,
2013-03-13 07:31:00,24.3,20.0,30.43,NW,311,0.0,2.0,82,0.00,,,0.00,0,weatherlink.com 1.10,2013-03-13 12:31:00,
2013-03-13 07:46:00,24.2,20.0,30.44,NW,311,0.0,3.0,83,0.00,,,0.00,14,weatherlink.com 1.10,2013-03-13 12:46:00,
2013-03-13 08:01:00,24.3,20.0,30.45,NW,311,0.0,1.0,83,0.00,,,0.00,26,weatherlink.com 1.10,2013-03-13 13:01:00,
2013-03-13 08:16:00,24.8,21.0,30.45,NW,311,0.0,1.0,84,0.00,,,0.00,56,weatherlink.com 1.10,2013-03-13 13:16:00,
2013-03-13 08:31:00,26.2,22.0,30.46,NW,311,1.0,3.0,84,0.00,,,0.00,95,weatherlink.com 1.10,2013-03-13 13:31:00,
2013-03-13 09:01:00,29.2,24.0,30.47,NW,309,1.0,3.0,81,0.00,,,0.00,246,weatherlink.com 1.10,2013-03-13 14:01:00,
2013-03-13 09:16:00,29.9,24.0,30.48,NW,309,1.0,4.0,77,0.00,,,0.00,287,weatherlink.com 1.10,2013-03-13 14:16:00,
2013-03-13 09:31:00,30.9,24.0,30.48,North,5,3.0,3.0,74,0.00,,,0.00,301,weatherlink.com 1.10,2013-03-13 14:31:00,
2013-03-13 09:46:00,31.3,24.0,30.49,WNW,300,3.0,4.0,75,0.00,,,0.00,373,weatherlink.com 1.10,2013-03-13 14:46:00,
2013-03-13 10:01:00,31.3,23.0,30.50,North,355,3.0,5.0,71,0.00,,,0.00,373,weatherlink.com 1.10,2013-03-13 15:01:00,
2013-03-13 10:16:00,32.6,24.0,30.50,North,9,2.0,4.0,71,0.00,,,0.00,422,weatherlink.com 1.10,2013-03-13 15:16:00,
2013-03-13 10:31:00,33.4,24.0,30.50,North,355,2.0,5.0,69,0.00,,,0.00,469,weatherlink.com 1.10,2013-03-13 15:31:00,
2013-03-13 10:46:00,33.3,23.0,30.50,NNE,32,1.0,4.0,66,0.00,,,0.00,401,weatherlink.com 1.10,2013-03-13 15:46:00,
2013-03-13 11:02:00,34.4,24.0,30.50,NNW,342,6.0,6.0,67,0.00,,,0.00,570,weatherlink.com 1.10,2013-03-13 16:02:00,
2013-03-13 11:16:00,35.5,24.0,30.51,NW,306,2.0,7.0,62,0.00,,,0.00,571,weatherlink.com 1.10,2013-03-13 16:16:00,
2013-03-13 11:31:00,36.8,25.0,30.51,NNW,333,1.0,7.0,63,0.00,,,0.00,628,weatherlink.com 1.10,2013-03-13 16:31:00,
2013-03-13 11:47:00,38.2,25.0,30.52,West,261,2.0,5.0,59,0.00,,,0.00,656,weatherlink.com 1.10,2013-03-13 16:47:00,
2013-03-13 12:02:00,38.0,23.0,30.51,WNW,290,1.0,6.0,56,0.00,,,0.00,684,weatherlink.com 1.10,2013-03-13 17:02:00,
2013-03-13 12:17:00,38.6,24.0,30.51,NW,306,5.0,7.0,55,0.00,,,0.00,687,weatherlink.com 1.10,2013-03-13 17:17:00,
2013-03-13 12:32:00,39.6,24.0,30.50,WNW,301,2.0,6.0,53,0.00,,,0.00,719,weatherlink.com 1.10,2013-03-13 17:32:00,
2013-03-13 12:47:00,41.0,24.0,30.50,NNW,345,1.0,5.0,51,0.00,,,0.00,754,weatherlink.com 1.10,2013-03-13 17:47:00,
2013-03-13 13:02:00,41.5,24.0,30.50,NNW,342,1.0,5.0,51,0.00,,,0.00,779,weatherlink.com 1.10,2013-03-13 18:02:00,
2013-03-13 13:17:00,41.3,24.0,30.50,NW,316,4.0,7.0,50,0.00,,,0.00,856,weatherlink.com 1.10,2013-03-13 18:17:00,
2013-03-13 13:32:00,41.8,23.0,30.49,NW,316,1.0,6.0,47,0.00,,,0.00,438,weatherlink.com 1.10,2013-03-13 18:32:00,
2013-03-13 13:47:00,41.6,24.0,30.48,NW,316,2.0,5.0,50,0.00,,,0.00,612,weatherlink.com 1.10,2013-03-13 18:47:00,
2013-03-13 14:02:00,41.8,23.0,30.48,NW,316,0.0,4.0,48,0.00,,,0.00,466,weatherlink.com 1.10,2013-03-13 19:02:00,
2013-03-13 14:17:00,42.5,24.0,30.47,NW,316,0.0,4.0,48,0.00,,,0.00,353,weatherlink.com 1.10,2013-03-13 19:17:00,
2013-03-13 14:32:00,41.7,23.0,30.46,NW,316,1.0,3.0,47,0.00,,,0.00,309,weatherlink.com 1.10,2013-03-13 19:32:00,
2013-03-13 14:47:00,41.1,22.0,30.45,North,355,0.0,5.0,46,0.00,,,0.00,253,weatherlink.com 1.10,2013-03-13 19:47:00,
2013-03-13 15:02:00,41.3,22.0,30.44,North,355,1.0,3.0,47,0.00,,,0.00,262,weatherlink.com 1.10,2013-03-13 20:02:00,
2013-03-13 15:17:00,42.7,24.0,30.44,North,355,1.0,3.0,47,0.00,,,0.00,454,weatherlink.com 1.10,2013-03-13 20:17:00,
2013-03-13 15:32:00,44.0,23.0,30.43,North,360,1.0,3.0,44,0.00,,,0.00,642,weatherlink.com 1.10,2013-03-13 20:32:00,
2013-03-13 15:47:00,43.3,22.0,30.42,NNE,15,5.0,6.0,43,0.00,,,0.00,278,weatherlink.com 1.10,2013-03-13 20:47:00,
2013-03-13 16:02:00,44.0,23.0,30.42,NNE,15,1.0,4.0,43,0.00,,,0.00,146,weatherlink.com 1.10,2013-03-13 21:02:00,
2013-03-13 16:17:00,44.3,22.0,30.41,NNE,13,2.0,5.0,42,0.00,,,0.00,577,weatherlink.com 1.10,2013-03-13 21:17:00,
2013-03-13 16:32:00,44.6,21.0,30.41,NNE,30,4.0,5.0,40,0.00,,,0.00,527,weatherlink.com 1.10,2013-03-13 21:32:00,
2013-03-13 16:47:00,45.2,22.0,30.40,NE,34,1.0,4.0,40,0.00,,,0.00,487,weatherlink.com 1.10,2013-03-13 21:47:00,
2013-03-13 17:02:00,45.8,22.0,30.40,ENE,57,1.0,4.0,39,0.00,,,0.00,411,weatherlink.com 1.10,2013-03-13 22:02:00,
2013-03-13 17:17:00,45.1,20.0,30.39,ENE,57,2.0,7.0,37,0.00,,,0.00,299,weatherlink.com 1.10,2013-03-13 22:17:00,
2013-03-13 17:32:00,45.1,21.0,30.40,ENE,57,1.0,3.0,39,0.00,,,0.00,195,weatherlink.com 1.10,2013-03-13 22:32:00,
2013-03-13 17:47:00,45.5,25.0,30.39,ENE,71,1.0,7.0,45,0.00,,,0.00,320,weatherlink.com 1.10,2013-03-13 22:47:00,
2013-03-13 18:02:00,45.4,23.0,30.39,East,80,0.0,4.0,42,0.00,,,0.00,239,weatherlink.com 1.10,2013-03-13 23:02:00,
2013-03-13 18:17:00,45.6,24.0,30.40,East,82,2.0,5.0,42,0.00,,,0.00,197,weatherlink.com 1.10,2013-03-13 23:17:00,
2013-03-13 18:33:00,45.0,21.0,30.40,East,98,0.0,7.0,39,0.00,,,0.00,46,weatherlink.com 1.10,2013-03-13 23:33:00,
2013-03-13 18:48:00,44.5,21.0,30.40,East,99,1.0,3.0,39,0.00,,,0.00,32,weatherlink.com 1.10,2013-03-13 23:48:00,
2013-03-13 19:03:00,43.8,21.0,30.39,East,99,1.0,3.0,41,0.00,,,0.00,21,weatherlink.com 1.10,2013-03-14 00:03:00,
2013-03-13 19:18:00,43.1,22.0,30.39,East,99,0.0,5.0,43,0.00,,,0.00,11,weatherlink.com 1.10,2013-03-14 00:18:00,
2013-03-13 19:33:00,42.3,21.0,30.39,East,99,0.0,1.0,43,0.00,,,0.00,0,weatherlink.com 1.10,2013-03-14 00:33:00,
2013-03-13 19:48:00,41.5,20.0,30.38,East,99,0.0,1.0,43,0.00,,,0.00,0,weatherlink.com 1.10,2013-03-14 00:48:00,
2013-03-13 20:03:00,40.8,20.0,30.38,East,99,0.0,0.0,44,0.00,,,0.00,0,weatherlink.com 1.10,2013-03-14 01:03:00,
2013-03-13 20:18:00,40.0,20.0,30.38,East,99,0.0,1.0,45,0.00,,,0.00,0,weatherlink.com 1.10,2013-03-14 01:18:00,
2013-03-13 20:33:00,39.5,20.0,30.37,East,99,0.0,2.0,46,0.00,,,0.00,0,weatherlink.com 1.10,2013-03-14 01:33:00,
2013-03-13 20:48:00,39.3,20.0,30.36,East,99,1.0,2.0,47,0.00,,,0.00,0,weatherlink.com 1.10,2013-03-14 01:48:00,
2013-03-13 21:03:00,39.1,21.0,30.36,East,99,2.0,3.0,49,0.00,,,0.00,0,weatherlink.com 1.10,2013-03-14 02:03:00,
2013-03-13 21:18:00,38.8,21.0,30.36,East,99,0.0,2.0,49,0.00,,,0.00,0,weatherlink.com 1.10,2013-03-14 02:18:00,
2013-03-13 21:33:00,38.4,21.0,30.36,East,99,0.0,3.0,50,0.00,,,0.00,0,weatherlink.com 1.10,2013-03-14 02:33:00,
2013-03-13 21:48:00,37.9,21.0,30.36,East,99,1.0,3.0,50,0.00,,,0.00,0,weatherlink.com 1.10,2013-03-14 02:48:00,
2013-03-13 22:03:00,37.9,21.0,30.36,East,99,2.0,5.0,51,0.00,,,0.00,0,weatherlink.com 1.10,2013-03-14 03:03:00,
2013-03-13 22:18:00,37.5,22.0,30.35,East,99,2.0,5.0,54,0.00,,,0.00,0,weatherlink.com 1.10,2013-03-14 03:18:00,
2013-03-13 22:33:00,37.3,23.0,30.35,East,99,3.0,5.0,56,0.00,,,0.00,0,weatherlink.com 1.10,2013-03-14 03:33:00,
2013-03-13 22:48:00,37.1,24.0,30.35,East,99,5.0,7.0,59,0.00,,,0.00,0,weatherlink.com 1.10,2013-03-14 03:48:00,
2013-03-13 23:03:00,37.1,24.0,30.35,East,99,5.0,5.0,60,0.00,,,0.00,0,weatherlink.com 1.10,2013-03-14 04:03:00,
2013-03-13 23:18:00,37.1,25.0,30.35,East,99,1.0,5.0,62,0.00,,,0.00,0,weatherlink.com 1.10,2013-03-14 04:18:00,
2013-03-13 23:34:00,37.1,25.0,30.34,East,99,2.0,5.0,63,0.00,,,0.00,0,weatherlink.com 1.10,2013-03-14 04:34:00,
2013-03-13 23:48:00,37.1,25.0,30.34,East,99,1.0,6.0,63,0.00,,,0.00,0,weatherlink.com 1.10,2013-03-14 04:48:00,